When you browse on this site, cookies collect data to enhance your experience and personalize the content and advertising you see.
Visit our Privacy Policy to learn more. By continuing to use the site, you agree to this use of cookies and data.
  • En España
  • Lista de países
  • Para 7 días
  • Temperatura del agua
  • El tiempo en el mapa
  • Informadores
  • user-avatar
    Iniciar sesión

    Tiempo cada hora Chigirinka

    Hoy, 20 Agosto, Martes

    Tiempo Temperatura Precipitaciones Viento Presión Humedad
    00:00 +16°C° 0 mm 0 mps 743 mmHg 86%
    01:00 +15°C° 0 mm 0 mps 743 mmHg 87%
    02:00 +15°C° 0 mm 0 mps 743 mmHg 87%
    03:00 +15°C° 0 mm 0 mps 743 mmHg 88%
    04:00 +15°C° 0 mm 0 mps 743 mmHg 88%
    05:00 +15°C° 0 mm 0 mps 743 mmHg 88%
    06:00 +17°C° 0 mm 0 mps 744 mmHg 83%
    07:00 +18°C° 0 mm 0 mps 744 mmHg 77%
    08:00 +20°C° 0 mm 0 mps 744 mmHg 71%
    09:00 +21°C° 0 mm 0 mps 744 mmHg 65%
    10:00 +25°C° 0 mm 1 mps 744 mmHg 59%
    11:00 +26°C° 0 mm 1 mps 744 mmHg 53%
    12:00 +26°C° 0 mm 1 mps 744 mmHg 51%
    13:00 +27°C° 0 mm 1 mps 744 mmHg 49%
    14:00 +27°C° 0 mm 1 mps 744 mmHg 48%
    15:00 +27°C° 0 mm 1 mps 744 mmHg 52%
    16:00 +26°C° 0 mm 1 mps 744 mmHg 56%
    17:00 +26°C° 0 mm 1 mps 744 mmHg 60%
    18:00 +25°C° 0 mm 1 mps 744 mmHg 64%
    19:00 +23°C° 0 mm 1 mps 744 mmHg 67%
    20:00 +19°C° 0 mm 0 mps 744 mmHg 71%
    21:00 +19°C° 0 mm 0 mps 744 mmHg 72%
    22:00 +18°C° 0 mm 0 mps 744 mmHg 74%
    23:00 +18°C° 0 mm 0 mps 744 mmHg 75%

    Mañana, 21 Agosto, Miércoles

    Tiempo Temperatura Precipitaciones Viento Presión Humedad
    00:00 +18°C° 0 mm 0 mps 744 mmHg 76%
    01:00 +17°C° 0 mm 0 mps 745 mmHg 78%
    02:00 +17°C° 0 mm 0 mps 745 mmHg 79%
    03:00 +17°C° 0 mm 0 mps 745 mmHg 80%
    04:00 +17°C° 0 mm 0 mps 745 mmHg 81%
    05:00 +17°C° 0 mm 0 mps 744 mmHg 82%
    06:00 +20°C° 0 mm 1 mps 745 mmHg 77%
    07:00 +22°C° 0 mm 1 mps 745 mmHg 72%
    08:00 +24°C° 0 mm 1 mps 745 mmHg 67%
    09:00 +25°C° 0 mm 1 mps 745 mmHg 64%
    10:00 +26°C° 0 mm 1 mps 745 mmHg 60%
    11:00 +27°C° 0 mm 1 mps 745 mmHg 57%
    12:00 +28°C° 0 mm 1 mps 745 mmHg 55%
    13:00 +28°C° 0 mm 1 mps 745 mmHg 53%
    14:00 +29°C° 0 mm 1 mps 745 mmHg 52%
    15:00 +28°C° 0 mm 1 mps 744 mmHg 55%
    16:00 +28°C° 0 mm 1 mps 744 mmHg 59%
    17:00 +28°C° 0 mm 1 mps 743 mmHg 63%
    18:00 +26°C° 0 mm 1 mps 743 mmHg 66%
    19:00 +25°C° 0 mm 2 mps 743 mmHg 70%
    20:00 +23°C° 0 mm 2 mps 743 mmHg 74%
    21:00 +21°C° 0 mm 2 mps 743 mmHg 75%
    22:00 +21°C° 0 mm 2 mps 743 mmHg 77%
    23:00 +20°C° 0 mm 2 mps 743 mmHg 79%

    Pasado mañana, 22 Agosto, Jueves

    Tiempo Temperatura Precipitaciones Viento Presión Humedad
    00:00 +20°C° 0 mm 2 mps 743 mmHg 80%
    01:00 +20°C° 0 mm 1 mps 743 mmHg 81%
    02:00 +20°C° 0 mm 1 mps 743 mmHg 81%
    03:00 +20°C° 0 mm 1 mps 743 mmHg 82%
    04:00 +19°C° 0 mm 1 mps 743 mmHg 83%
    05:00 +19°C° 0 mm 1 mps 742 mmHg 84%
    06:00 +21°C° 0 mm 1 mps 742 mmHg 79%
    07:00 +21°C° 0 mm 0 mps 742 mmHg 73%
    08:00 +22°C° 0 mm 0 mps 743 mmHg 68%
    09:00 +23°C° 0 mm 0 mps 743 mmHg 64%
    10:00 +25°C° 0 mm 0 mps 742 mmHg 60%
    11:00 +26°C° 0 mm 0 mps 742 mmHg 56%
    12:00 +26°C° 0 mm 0 mps 742 mmHg 55%
    13:00 +28°C° 0 mm 1 mps 742 mmHg 53%
    14:00 +29°C° 0 mm 1 mps 742 mmHg 52%
    15:00 +28°C° 0.3 mm 1 mps 742 mmHg 57%
    16:00 +28°C° 0.3 mm 2 mps 742 mmHg 62%
    17:00 +27°C° 0.3 mm 2 mps 742 mmHg 67%
    18:00 +25°C° 0.4 mm 3 mps 742 mmHg 74%
    19:00 +22°C° 0.4 mm 4 mps 742 mmHg 81%
    20:00 +21°C° 0.4 mm 4 mps 743 mmHg 88%
    21:00 +20°C° 0 mm 4 mps 743 mmHg 90%
    22:00 +19°C° 0 mm 4 mps 743 mmHg 91%
    23:00 +18°C° 0 mm 4 mps 743 mmHg 92%

    23 Agosto, Viernes

    Tiempo Temperatura Precipitaciones Viento Presión Humedad
    00:00 +18°C° 0 mm 4 mps 743 mmHg 92%
    01:00 +17°C° 0 mm 4 mps 743 mmHg 91%
    02:00 +17°C° 0 mm 4 mps 744 mmHg 91%
    03:00 +15°C° 0.1 mm 4 mps 744 mmHg 91%
    04:00 +15°C° 0.1 mm 4 mps 744 mmHg 91%
    05:00 +15°C° 0.1 mm 4 mps 744 mmHg 92%
    06:00 +15°C° 0.2 mm 4 mps 744 mmHg 88%
    07:00 +17°C° 0.2 mm 4 mps 744 mmHg 85%
    08:00 +17°C° 0.2 mm 5 mps 744 mmHg 82%
    09:00 +19°C° 0 mm 5 mps 744 mmHg 77%
    10:00 +20°C° 0 mm 5 mps 744 mmHg 72%
    11:00 +21°C° 0 mm 5 mps 745 mmHg 68%
    12:00 +21°C° 0 mm 5 mps 745 mmHg 66%
    13:00 +22°C° 0 mm 5 mps 745 mmHg 64%
    14:00 +22°C° 0 mm 5 mps 745 mmHg 62%
    15:00 +22°C° 0 mm 4 mps 744 mmHg 64%
    16:00 +22°C° 0 mm 4 mps 744 mmHg 67%
    17:00 +21°C° 0 mm 3 mps 744 mmHg 69%
    18:00 +20°C° 0 mm 3 mps 744 mmHg 73%
    19:00 +18°C° 0 mm 3 mps 745 mmHg 76%
    20:00 +17°C° 0 mm 3 mps 745 mmHg 80%
    21:00 +16°C° 0 mm 3 mps 745 mmHg 80%
    22:00 +16°C° 0 mm 2 mps 745 mmHg 80%
    23:00 +15°C° 0 mm 2 mps 745 mmHg 81%

    24 Agosto, Sábado

    Tiempo Temperatura Precipitaciones Viento Presión Humedad
    00:00 +15°C° 0 mm 2 mps 745 mmHg 81%
    01:00 +14°C° 0 mm 2 mps 745 mmHg 82%
    02:00 +14°C° 0 mm 2 mps 745 mmHg 83%
    03:00 +14°C° 0 mm 2 mps 746 mmHg 83%
    04:00 +12°C° 0 mm 3 mps 746 mmHg 84%
    05:00 +12°C° 0 mm 3 mps 746 mmHg 84%
    06:00 +13°C° 0 mm 3 mps 746 mmHg 80%
    07:00 +16°C° 0 mm 3 mps 746 mmHg 76%
    08:00 +18°C° 0 mm 3 mps 746 mmHg 71%
    09:00 +19°C° 0 mm 3 mps 747 mmHg 65%
    10:00 +20°C° 0 mm 3 mps 747 mmHg 59%
    11:00 +21°C° 0 mm 3 mps 747 mmHg 52%
    12:00 +22°C° 0 mm 3 mps 747 mmHg 50%
    13:00 +22°C° 0 mm 3 mps 746 mmHg 48%
    14:00 +22°C° 0 mm 3 mps 746 mmHg 46%
    15:00 +23°C° 0 mm 2 mps 746 mmHg 50%
    16:00 +21°C° 0 mm 2 mps 746 mmHg 54%
    17:00 +21°C° 0 mm 2 mps 746 mmHg 59%
    18:00 +20°C° 0 mm 1 mps 746 mmHg 62%
    19:00 +19°C° 0 mm 1 mps 746 mmHg 64%
    20:00 +16°C° 0 mm 1 mps 746 mmHg 67%
    21:00 +16°C° 0 mm 1 mps 746 mmHg 68%
    22:00 +15°C° 0 mm 1 mps 746 mmHg 68%
    23:00 +15°C° 0 mm 1 mps 746 mmHg 69%

    25 Agosto, Domingo

    Tiempo Temperatura Precipitaciones Viento Presión Humedad
    00:00 +15°C° 0 mm 1 mps 746 mmHg 69%
    01:00 +15°C° 0 mm 1 mps 746 mmHg 70%
    02:00 +14°C° 0 mm 2 mps 746 mmHg 71%
    03:00 +14°C° 0 mm 2 mps 746 mmHg 72%
    04:00 +14°C° 0 mm 2 mps 746 mmHg 74%
    05:00 +13°C° 0 mm 2 mps 746 mmHg 75%
    06:00 +15°C° 0 mm 2 mps 746 mmHg 72%
    07:00 +17°C° 0 mm 2 mps 746 mmHg 69%
    08:00 +18°C° 0 mm 3 mps 746 mmHg 66%
    09:00 +20°C° 0 mm 3 mps 746 mmHg 63%
    10:00 +21°C° 0 mm 3 mps 745 mmHg 60%
    11:00 +22°C° 0 mm 3 mps 745 mmHg 57%
    12:00 +22°C° 0 mm 3 mps 745 mmHg 56%
    13:00 +23°C° 0 mm 4 mps 745 mmHg 55%
    14:00 +23°C° 0 mm 4 mps 744 mmHg 54%
    15:00 +24°C° 0 mm 3 mps 744 mmHg 57%
    16:00 +22°C° 0 mm 3 mps 744 mmHg 61%
    17:00 +23°C° 0 mm 2 mps 743 mmHg 64%
    18:00 +20°C° 0 mm 2 mps 743 mmHg 68%
    19:00 +19°C° 0 mm 2 mps 743 mmHg 72%
    20:00 +17°C° 0 mm 2 mps 743 mmHg 76%
    21:00 +17°C° 0 mm 2 mps 743 mmHg 78%
    22:00 +16°C° 0 mm 2 mps 744 mmHg 81%
    23:00 +16°C° 0 mm 2 mps 744 mmHg 83%
    Mostrar más